Terminal Aerodrome Forecast
Issued by NWS Sterling, VA

Current Version | Previous Version | Graphics & Text | Print | Product List | Glossary On
Versions: 1 2 3 4 5 6 7 8 9 10 11 12 13 14 15 16 17 18 19 20 21 22 23 24 25 26 27 28
000
FTUS41 KLWX 192101 AAB
TAFDCA
TAF AMD
KDCA 192101Z 1921/2018 30010G19KT P6SM SCT035 BKN050
     FM192200 30010KT P6SM FEW035 SCT050
     FM200100 30010KT P6SM FEW250
     FM200500 33010KT P6SM SKC
     FM201500 32012G20KT P6SM FEW035=

USA.gov is the U.S. government's official web portal to all federal, state and local government web resources and services.